TimeEST,TemperatureF,Dew PointF,Humidity,Sea Level PressureIn,VisibilityMPH,Wind Direction,Wind SpeedMPH,Gust SpeedMPH,PrecipitationIn,Events,Conditions,WindDirDegrees,DateUTC
12:52 AM,41.0,27.0,57,30.22,10.0,South,9.2,-,N/A,,Scattered Clouds,190,2012-11-30 05:52:00
1:52 AM,37.9,27.0,65,30.22,10.0,South,5.8,-,N/A,,Partly Cloudy,190,2012-11-30 06:52:00
2:52 AM,39.9,27.0,60,30.22,10.0,Calm,Calm,-,N/A,,Mostly Cloudy,0,2012-11-30 07:52:00
3:52 AM,37.9,27.0,65,30.22,10.0,SSW,4.6,-,N/A,,Mostly Cloudy,200,2012-11-30 08:52:00
4:52 AM,39.0,28.0,65,30.22,10.0,South,9.2,-,N/A,,Mostly Cloudy,190,2012-11-30 09:52:00
5:52 AM,39.9,28.0,63,30.22,10.0,SSW,10.4,-,N/A,,Scattered Clouds,200,2012-11-30 10:52:00
6:52 AM,41.0,28.0,60,30.22,10.0,SSW,10.4,-,N/A,,Partly Cloudy,200,2012-11-30 11:52:00
7:52 AM,39.9,28.0,63,30.23,10.0,SSW,9.2,-,N/A,,Scattered Clouds,200,2012-11-30 12:52:00
8:52 AM,44.1,28.9,55,30.24,10.0,SSW,9.2,-,N/A,,Scattered Clouds,200,2012-11-30 13:52:00
9:52 AM,46.9,30.9,54,30.25,10.0,SSW,10.4,-,N/A,,Mostly Cloudy,210,2012-11-30 14:52:00
10:52 AM,51.1,33.1,50,30.24,10.0,SW,16.1,21.9,N/A,,Mostly Cloudy,220,2012-11-30 15:52:00
11:52 AM,55.0,34.0,45,30.21,10.0,SW,13.8,20.7,N/A,,Partly Cloudy,220,2012-11-30 16:52:00
12:52 PM,55.0,34.0,45,30.17,10.0,SW,15.0,21.9,N/A,,Mostly Cloudy,220,2012-11-30 17:52:00
2:52 PM,55.9,36.0,47,30.16,10.0,SSW,10.4,-,N/A,,Mostly Cloudy,200,2012-11-30 19:52:00
3:52 PM,55.0,37.0,51,30.15,10.0,South,13.8,19.6,N/A,,Mostly Cloudy,190,2012-11-30 20:52:00
4:52 PM,54.0,37.9,55,30.17,10.0,South,9.2,-,N/A,,Scattered Clouds,190,2012-11-30 21:52:00
5:52 PM,50.0,37.9,63,30.18,10.0,SSW,5.8,-,N/A,,Partly Cloudy,200,2012-11-30 22:52:00
6:52 PM,46.0,37.0,71,30.19,10.0,South,5.8,-,N/A,,Clear,170,2012-11-30 23:52:00
7:52 PM,46.9,37.0,68,30.21,9.0,SSE,4.6,-,N/A,,Partly Cloudy,160,2012-12-01 00:52:00
8:52 PM,46.9,37.9,71,30.21,10.0,South,8.1,-,N/A,,Mostly Cloudy,190,2012-12-01 01:52:00
9:52 PM,46.9,37.0,68,30.21,10.0,South,6.9,-,N/A,,Scattered Clouds,190,2012-12-01 02:52:00
10:52 PM,46.0,37.0,71,30.22,10.0,South,4.6,-,N/A,,Overcast,180,2012-12-01 03:52:00
11:52 PM,48.9,37.9,66,30.21,10.0,SSW,6.9,-,N/A,,Overcast,200,2012-12-01 04:52:00